Theta_e
316 338 347 348 347 347 349 349 347 345 341 341 340 339 339 340 340 339 340 340 340 341 337 341 342 342 340 340 341 342 343 343 343 341 340 339 338 335 335 335 335 329 334
308 340 344 348 348 347 347 347 347 345 342 342 341 341 339 337 337 337 338 340 340 344 343 343 343 341 339 339 340 340 339 339 341 341 339 339 337 335 334 335 334 330 335
307 341 342 345 349 348 348 347 347 346 344 343 342 343 339 337 336 337 337 336 338 342 343 342 341 338 338 338 337 337 335 336 337 338 337 328 329 335 334 335 333 335 333
314 343 342 342 347 349 348 347 346 346 345 345 344 344 343 340 338 337 337 336 335 336 340 340 339 337 337 338 337 336 335 335 336 336 327 328 329 337 335 334 333 332 332
306 312 342 341 345 348 348 347 347 346 345 345 345 344 343 342 340 338 336 337 336 336 337 338 338 337 335 337 337 335 335 335 336 331 324 324 325 332 335 334 333 333 332
301 304 311 333 344 346 346 346 347 346 345 345 345 345 344 342 341 341 339 336 336 337 337 338 337 336 334 335 337 335 334 334 334 319 317 319 324 333 335 334 333 332 331
298 302 306 320 325 333 342 344 344 345 345 345 345 345 345 343 343 342 341 338 336 335 335 336 338 336 333 334 336 337 335 332 321 317 315 319 324 334 334 332 332 332 330
298 303 307 314 321 325 330 333 339 343 344 343 344 344 344 344 343 342 340 338 337 335 334 336 338 337 334 333 335 336 334 330 323 316 313 317 326 334 332 331 330 328 329
300 302 305 310 315 318 323 321 329 334 340 341 341 341 341 341 342 342 340 339 338 337 337 337 336 338 335 332 332 334 331 328 314 312 313 314 327 334 334 331 330 330 330
296 298 302 308 311 311 312 315 318 321 326 332 333 334 333 334 335 336 335 337 339 339 337 336 336 337 336 334 332 330 327 325 314 311 310 310 326 334 333 333 333 332 332
296 295 298 303 306 308 308 309 311 315 318 319 320 326 329 334 335 332 332 333 337 337 337 336 336 334 333 331 330 328 325 317 312 310 309 315 322 332 333 332 332 332 332
292 293 295 298 301 304 306 306 307 309 310 312 313 317 323 328 334 334 328 328 332 332 334 336 335 331 326 324 326 326 321 316 313 311 310 317 321 326 333 332 333 333 333
291 293 294 295 297 299 302 303 303 305 306 308 308 316 323 317 322 334 333 331 329 325 331 332 331 327 322 321 321 320 317 314 313 312 313 318 322 326 332 332 333 333 334
292 293 294 294 294 295 299 300 301 302 303 305 306 309 309 310 312 313 317 330 330 330 328 329 326 325 322 320 319 318 315 314 314 313 310 316 320 325 330 333 333 333 333
291 292 292 293 293 295 296 298 299 300 301 303 304 307 307 309 309 310 313 313 326 330 328 326 325 322 320 320 319 318 317 314 312 312 310 312 317 322 330 333 334 334 334
291 291 292 292 293 294 294 296 297 299 300 302 303 305 305 307 307 308 308 310 313 314 317 326 324 323 321 320 319 318 318 316 313 311 310 310 316 320 328 333 334 334 334
290 291 291 292 293 292 292 294 296 298 300 300 301 304 303 305 306 305 306 307 309 311 312 314 321 324 322 321 319 319 318 317 314 311 310 311 313 318 324 332 335 335 334
289 290 291 293 291 292 292 293 295 297 298 298 300 302 302 304 305 304 304 305 308 308 308 311 313 319 321 321 319 319 318 318 316 313 311 312 314 316 319 326 330 333 335
289 290 290 290 290 291 292 293 294 296 297 298 298 299 300 303 304 303 303 304 305 305 307 308 309 311 315 320 319 319 319 317 316 314 311 311 313 316 316 319 322 325 330
289 289 289 290 291 291 292 292 293 294 295 296 296 298 299 300 301 302 303 303 303 304 304 306 306 308 310 310 312 319 318 318 316 313 311 311 312 314 315 316 317 319 322
289 289 289 289 290 290 290 290 291 291 292 293 295 297 298 299 300 300 299 301 301 300 301 304 304 305 307 311 310 316 318 316 315 313 312 312 311 312 314 316 317 317 319
286 287 287 289 290 291 291 292 292 292 293 294 296 296 298 298 298 298 298 298 298 298 300 300 302 304 305 309 308 309 309 310 313 313 313 312 311 313 313 314 316 316 317
285 286 288 289 290 290 291 292 292 292 292 292 293 293 294 296 297 297 297 297 297 298 298 299 301 300 299 303 309 308 307 307 308 311 311 312 311 311 312 312 315 316 316
286 286 287 289 289 290 291 291 289 289 289 291 292 293 293 294 295 296 296 296 296 298 297 298 300 300 301 300 304 309 309 308 304 303 306 306 306 307 309 309 310 308 310
286 286 286 287 288 290 290 290 290 289 291 291 292 291 292 293 294 294 295 295 295 296 297 297 298 299 301 300 300 304 305 308 309 306 302 299 300 300 301 303 304 304 303
286 286 286 287 288 289 289 290 289 289 289 290 290 290 290 291 292 293 294 293 294 295 296 296 297 298 298 299 301 302 304 303 305 307 306 304 304 294 295 296 298 299 300
Wind_Speed
10 3 6 7 5 4 7 8 8 8 6 6 5 2 2 4 3 1 4 10 8 8 7 8 7 6 8 5 5 9 9 8 8 10 10 10 10 10 9 9 6 5 8
15 2 7 7 7 6 3 6 8 8 7 7 6 5 5 4 3 2 4 2 5 12 6 10 9 7 6 8 5 8 8 7 7 8 10 9 9 9 9 8 6 7 8
18 3 5 8 7 7 6 5 7 9 8 8 7 7 7 7 6 6 4 4 5 7 7 10 8 6 3 6 7 8 8 7 7 7 8 3 4 9 10 9 8 8 8
15 5 3 6 8 7 8 7 8 10 10 10 10 10 10 9 9 9 7 6 5 2 6 6 7 7 4 5 7 7 7 8 6 7 4 3 4 9 10 10 9 9 8
13 16 4 7 9 10 10 9 9 10 11 11 12 12 11 12 11 11 10 9 9 8 7 8 7 7 6 7 7 8 8 7 5 6 3 2 2 6 10 10 9 9 7
12 12 15 16 13 11 11 11 11 12 13 14 14 14 15 13 12 11 11 12 12 12 11 11 10 11 8 9 10 9 8 8 5 3 4 6 5 9 11 11 8 8 8
12 12 13 19 21 17 14 14 13 12 12 13 14 15 14 15 13 13 13 13 14 14 14 15 12 13 11 11 13 11 10 7 4 4 5 6 6 13 11 11 11 10 10
9 10 11 15 19 20 21 22 19 16 14 13 13 14 14 14 15 16 16 16 16 16 15 15 14 13 15 13 13 12 9 8 5 5 5 5 10 14 13 12 12 11 11
8 9 10 10 14 18 19 23 22 21 16 14 15 14 14 14 15 16 17 17 17 17 16 17 15 15 15 14 13 11 9 9 5 4 5 4 13 16 14 14 14 13 12
7 7 8 8 9 10 10 19 19 21 22 18 14 15 13 12 14 14 14 16 19 19 17 18 16 16 16 15 14 11 10 11 6 5 4 4 14 17 16 15 15 15 15
8 7 7 8 9 9 9 12 15 17 17 17 17 16 12 9 10 11 13 15 20 20 20 19 19 14 14 13 14 12 11 4 5 4 4 11 13 18 18 16 16 16 16
7 6 6 7 7 7 7 8 8 9 8 9 10 11 8 11 11 10 11 16 18 18 20 21 21 17 13 9 6 11 5 5 5 5 4 14 16 17 20 18 18 18 17
4 4 6 5 6 7 5 4 3 4 5 6 11 11 11 9 11 7 7 7 10 14 11 14 13 11 12 10 9 6 6 6 4 5 8 15 17 18 21 21 20 19 19
6 6 7 7 6 6 3 3 4 4 4 5 7 10 9 6 9 7 7 10 9 9 12 13 9 11 11 12 11 11 8 7 6 5 6 14 17 20 21 23 21 20 20
6 6 7 7 7 5 6 4 4 4 4 4 4 6 7 7 8 8 8 7 10 9 11 12 12 11 11 12 12 13 12 11 10 6 5 14 18 21 22 25 23 21 21
6 7 6 7 6 6 5 5 5 4 4 4 4 5 6 6 6 7 8 7 6 7 9 10 11 12 12 12 13 14 15 11 11 10 8 8 18 20 22 24 23 22 22
5 6 7 7 6 6 7 6 4 4 5 4 4 5 6 6 6 7 6 7 6 7 9 10 10 11 11 12 14 13 12 14 11 11 10 8 9 18 20 23 22 21 22
6 7 7 5 7 7 7 5 4 5 4 5 4 4 6 7 7 6 6 7 5 6 6 8 7 11 11 12 13 13 12 13 14 14 11 9 9 8 14 22 23 21 21
6 7 7 6 7 7 7 5 6 7 5 5 4 5 7 7 7 7 6 7 7 7 6 5 9 7 10 12 13 14 13 13 14 12 15 13 11 9 7 14 20 17 19
6 6 7 6 7 7 5 5 4 4 5 5 5 5 8 7 8 7 6 8 7 7 7 7 9 8 7 6 8 13 13 12 12 12 13 13 13 12 9 9 8 11 16
6 6 7 7 8 4 3 4 4 4 4 4 4 7 8 8 9 8 6 7 7 6 8 9 9 10 8 7 6 8 11 13 14 12 12 11 13 13 12 10 8 6 7
6 8 8 8 8 5 3 4 4 4 4 6 6 7 8 10 9 8 8 8 9 8 9 8 10 7 8 8 5 6 5 6 11 12 10 11 13 10 11 10 10 8 7
7 8 7 8 7 6 6 4 4 4 4 6 7 8 5 9 9 10 10 9 9 8 8 9 8 9 11 10 10 5 4 3 3 7 14 12 14 10 9 10 10 10 8
7 7 7 7 7 6 6 5 5 6 12 10 9 8 8 9 10 10 11 11 10 8 9 9 9 10 11 12 8 10 12 9 7 3 3 6 6 8 8 5 7 6 6
6 6 6 7 7 5 6 6 6 11 10 9 9 12 11 9 8 9 10 10 11 9 10 10 11 11 10 9 9 9 9 9 12 10 7 4 1 2 3 6 5 6 5
6 5 5 6 6 6 7 8 9 12 13 11 11 11 10 9 8 9 10 10 10 11 11 10 12 13 12 11 11 11 10 8 11 12 9 8 13 2 2 2 3 4 5
Wind_Direction
322 294 215 206 221 236 211 179 182 176 182 175 166 158 152 129 155 183 246 217 209 200 176 164 142 168 147 119 115 130 134 135 135 130 127 121 120 126 123 113 97 119 118
316 224 213 210 212 213 238 233 210 185 203 200 197 187 188 190 193 232 310 314 291 204 178 168 142 114 136 147 154 136 137 130 125 121 131 132 142 153 141 125 123 133 130
333 224 206 218 219 220 210 240 225 208 209 223 224 218 204 200 211 225 254 292 326 200 158 145 136 125 143 148 161 158 156 148 125 113 105 102 153 161 151 149 153 145 146
340 331 234 227 228 222 225 223 235 229 216 224 232 236 223 225 218 217 229 248 255 226 169 165 153 144 187 188 171 180 172 159 140 120 106 143 192 160 163 165 165 161 159
3 10 300 245 243 233 227 221 216 225 237 239 238 244 233 233 231 227 221 232 246 244 238 194 156 172 196 226 199 192 186 178 162 133 139 191 239 198 181 174 175 165 158
353 3 11 1 295 264 252 241 225 221 228 234 242 247 237 230 230 230 228 228 236 242 241 235 196 197 200 237 229 200 197 193 184 209 238 232 213 223 190 184 172 177 178
354 3 6 8 18 7 326 292 270 257 247 241 244 248 249 240 233 233 232 228 234 237 243 243 217 198 187 225 235 218 213 208 174 222 250 207 199 215 198 192 192 187 191
358 359 9 7 11 14 14 12 350 298 265 258 253 253 252 253 236 236 233 230 232 236 238 238 236 213 183 209 231 223 222 207 195 224 240 212 209 215 202 200 200 201 202
4 10 4 7 7 6 12 11 6 2 325 315 294 264 250 247 247 248 234 226 228 232 237 240 233 216 197 196 226 232 226 223 197 211 232 214 215 220 209 204 207 207 208
7 10 3 6 10 6 10 8 5 5 11 344 320 302 280 257 248 247 241 228 221 226 232 233 245 216 213 198 210 225 226 228 212 216 229 230 222 226 219 211 211 213 213
7 3 3 7 10 9 15 5 3 2 0 357 358 335 293 267 260 249 243 230 228 224 217 228 236 231 221 209 200 213 227 218 216 216 211 234 232 227 228 219 215 218 219
351 342 4 360 6 5 11 5 358 358 354 351 344 341 333 334 275 245 237 227 228 224 224 219 224 230 228 235 220 207 219 224 219 220 215 229 234 231 229 224 218 218 219
295 328 343 353 353 9 2 355 358 351 347 346 346 355 353 357 348 283 246 236 228 229 228 227 223 214 217 221 226 214 207 219 232 229 229 227 231 232 229 229 222 221 219
318 310 321 342 346 347 350 356 336 349 343 345 340 343 341 333 332 325 352 298 234 229 223 225 223 226 207 203 202 211 215 219 225 237 237 232 233 231 232 227 225 224 224
308 311 312 327 330 334 345 339 335 333 329 313 323 328 338 327 323 332 330 318 313 244 227 222 222 214 216 213 204 205 214 223 223 226 233 233 232 234 234 226 225 225 225
283 295 300 316 317 334 329 323 313 309 299 308 305 301 321 313 310 323 318 316 320 336 341 259 220 226 222 213 218 213 212 215 223 227 227 239 236 232 231 227 226 226 225
278 285 298 311 317 328 317 310 311 303 315 300 291 288 301 304 298 304 298 308 305 321 340 333 304 229 231 227 219 219 217 212 213 223 229 231 236 231 226 225 229 228 228
276 286 294 301 306 308 301 295 297 300 294 289 285 275 282 288 291 294 293 298 298 303 292 293 290 293 225 221 224 218 216 221 220 214 217 226 226 224 226 226 225 225 225
258 277 293 298 289 295 296 295 294 291 285 278 281 283 282 276 276 282 287 288 295 297 291 296 294 291 309 237 227 219 218 214 217 219 216 211 220 222 217 225 226 224 224
274 278 281 290 298 309 296 288 282 284 278 272 272 273 280 278 271 272 275 278 292 295 295 298 289 288 285 293 308 246 219 219 212 213 216 217 209 215 218 217 218 229 223
281 304 298 306 302 312 318 322 308 281 279 271 266 267 271 275 273 270 270 270 272 277 278 286 287 282 287 267 306 262 238 216 217 212 204 213 216 203 211 217 218 215 221
284 292 294 288 294 305 309 281 261 288 281 283 274 276 273 275 273 272 266 269 269 273 274 276 275 269 265 259 245 304 246 214 222 215 208 206 213 208 205 205 210 209 209
293 292 288 290 303 308 298 288 298 293 288 300 297 294 263 266 268 269 270 266 267 262 266 269 271 273 278 277 259 245 283 264 186 201 214 206 204 205 197 190 197 205 206
277 292 295 313 310 297 307 315 307 301 305 303 298 294 287 273 268 267 269 272 269 265 263 262 264 259 259 266 261 240 241 247 272 308 286 208 181 198 177 184 176 166 175
285 296 311 308 295 309 318 311 299 298 296 297 293 297 291 283 268 267 271 274 270 265 263 259 261 263 262 272 270 269 261 245 242 247 251 222 197 164 158 165 173 165 156
296 311 314 298 299 327 318 302 293 294 299 300 301 301 302 298 286 272 265 266 265 264 262 264 266 261 259 259 258 253 253 240 250 230 248 203 205 158 128 124 165 158 153